| time (UTC) | temp C | wind direction | speed KPH | gust KPH | rain 1hr cm | rain 24hr cm | rain mn cm | humidity % | barometer mb |
| 20260507124559 | 12 | 86 | 16.1 | 25.7 | 0.00 | 0.00 | 0.00 | 66 | 1013.1 |
| 20260507121551 | 12 | 83 | 19.3 | 32.2 | 0.00 | 0.00 | 0.00 | 66 | 1012.4 |
| 20260507120042 | 12 | 79 | 30.6 | 38.6 | 0.00 | 0.00 | 0.00 | 66 | 1012.3 |
| 20260507114538 | 13 | 79 | 29.0 | 40.2 | 0.00 | 0.00 | 0.00 | 65 | 1011.8 |
| 20260507111533 | 13 | 73 | 24.1 | 35.4 | 0.00 | 0.00 | 0.00 | 71 | 1011.4 |
| 20260507110032 | 13 | 66 | 22.5 | 32.2 | 0.00 | 0.00 | 0.00 | 71 | 1011.5 |
| 20260507104530 | 14 | 74 | 30.6 | 43.5 | 0.00 | 0.00 | 0.00 | 70 | 1011.3 |
| 20260507101525 | 15 | 64 | 24.1 | 35.4 | 0.00 | 0.00 | 0.00 | 69 | 1011.1 |
| 20260507100021 | 15 | 63 | 29.0 | 35.4 | 0.00 | 0.00 | 0.00 | 69 | 1010.9 |
| 20260507094519 | 15 | 48 | 27.4 | 33.8 | 0.00 | 0.00 | 0.00 | 70 | 1010.7 |
| 20260507091519 | 16 | 28 | 16.1 | 27.4 | 0.00 | 0.00 | 0.00 | 68 | 1010.3 |
| 20260507090014 | 16 | 15 | 14.5 | 22.5 | 0.00 | 0.00 | 0.00 | 67 | 1010.1 |
| 20260507084532 | 16 | 85 | 20.9 | 30.6 | 0.00 | 0.00 | 0.00 | 67 | 1009.2 |
| 20260507081509 | 16 | 99 | 19.3 | 27.4 | 0.00 | 0.00 | 0.00 | 66 | 1008.7 |
| 20260507080004 | 17 | 90 | 17.7 | 22.5 | 0.00 | 0.00 | 0.00 | 64 | 1008.7 |
| 20260507074608 | 17 | 63 | 17.7 | 22.5 | 0.00 | 0.00 | 0.00 | 60 | 1008.7 |
| 20260507073157 | 17 | 104 | 12.9 | 17.7 | 0.00 | 0.00 | 0.00 | 58 | 1008.4 |
| 20260507071606 | 18 | 85 | 16.1 | 20.9 | 0.00 | 0.00 | 0.00 | 56 | 1008.4 |
| 20260507070106 | 18 | 59 | 17.7 | 25.7 | 0.00 | 0.00 | 0.00 | 52 | 1008.6 |
| 20260507064555 | 18 | 117 | 17.7 | 24.1 | 0.00 | 0.00 | 0.00 | 49 | 1008.2 |
| 20260507063149 | 19 | 107 | 19.3 | 27.4 | 0.00 | 0.00 | 0.00 | 46 | 1008.1 |
| 20260507061543 | 20 | 117 | 20.9 | 29.0 | 0.00 | 0.00 | 0.00 | 42 | 1008.0 |
| 20260507060039 | 20 | 115 | 19.3 | 29.0 | 0.00 | 0.00 | 0.00 | 39 | 1008.0 |
| 20260507054556 | 21 | 113 | 19.3 | 24.1 | 0.00 | 0.00 | 0.00 | 36 | 1008.1 |
| 20260507053136 | 22 | 137 | 16.1 | 19.3 | 0.00 | 0.00 | 0.00 | 35 | 1007.9 |
| 20260507051537 | 22 | 137 | 14.5 | 16.1 | 0.00 | 0.00 | 0.00 | 35 | 1007.9 |
| 20260507050042 | 22 | 118 | 12.9 | 19.3 | 0.00 | 0.00 | 0.00 | 34 | 1007.8 |
| 20260507044553 | 23 | 144 | 14.5 | 19.3 | 0.00 | 0.00 | 0.00 | 31 | 1007.6 |
| 20260507043133 | 23 | 155 | 12.9 | 14.5 | 0.00 | 0.00 | 0.00 | 31 | 1007.4 |
| 20260507041531 | 23 | 151 | 9.7 | 22.5 | 0.00 | 0.00 | 0.00 | 31 | 1007.2 |
| 20260507040036 | 24 | 182 | 12.9 | 19.3 | 0.00 | 0.00 | 0.00 | 30 | 1007.1 |
| 20260507034529 | 24 | 155 | 8.0 | 12.9 | 0.00 | 0.00 | 0.00 | 29 | 1007.0 |
| 20260507033128 | 25 | 68 | 6.4 | 12.9 | 0.00 | 0.00 | 0.00 | 27 | 1006.6 |
| 20260507031530 | 25 | 165 | 11.3 | 19.3 | 0.00 | 0.00 | 0.00 | 27 | 1006.5 |
| 20260507030031 | 25 | 90 | 9.7 | 17.7 | 0.00 | 0.00 | 0.00 | 24 | 1006.3 |
| 20260507024535 | 25 | 90 | 12.9 | 14.5 | 0.00 | 0.00 | 0.00 | 20 | 1005.9 |
| 20260507023126 | 25 | 311 | 6.4 | 14.5 | 0.00 | 0.00 | 0.00 | 18 | 1005.5 |
| 20260507021534 | 26 | 317 | 9.7 | 16.1 | 0.00 | 0.00 | 0.00 | 18 | 1005.3 |
| 20260507020026 | 26 | 293 | 12.9 | 16.1 | 0.00 | 0.00 | 0.00 | 18 | 1005.0 |
| 20260507014528 | 27 | 292 | 11.3 | 16.1 | 0.00 | 0.00 | 0.00 | 17 | 1004.8 |
| 20260507013124 | 27 | 303 | 14.5 | 19.3 | 0.00 | 0.00 | 0.00 | 16 | 1004.4 |
| 20260507011525 | 28 | 301 | 16.1 | 29.0 | 0.00 | 0.00 | 0.00 | 15 | 1004.1 |
| 20260507010031 | 28 | 288 | 27.4 | 32.2 | 0.00 | 0.00 | 0.00 | 14 | 1003.9 |
| 20260507004523 | 28 | 248 | 22.5 | 32.2 | 0.00 | 0.00 | 0.00 | 14 | 1003.9 |
| 20260507003125 | 28 | 279 | 24.1 | 32.2 | 0.00 | 0.00 | 0.00 | 14 | 1003.8 |
| 20260507001522 | 29 | 288 | 27.4 | 37.0 | 0.00 | 0.00 | 0.00 | 13 | 1003.8 |
| 20260507000026 | 28 | 290 | 22.5 | 33.8 | 0.00 | 0.00 | 0.00 | 13 | 1003.7 |
| 20260506234518 | 27 | 9 | 6.4 | 19.3 | 0.00 | 0.00 | 0.00 | 24 | 1003.7 |
| 20260506233118 | 27 | 138 | 14.5 | 25.7 | 0.00 | 0.00 | 0.00 | 25 | 1003.6 |
| 20260506231520 | 27 | 108 | 8.0 | 30.6 | 0.00 | 0.00 | 0.00 | 24 | 1003.5 |
| 20260506230019 | 27 | 124 | 19.3 | 29.0 | 0.00 | 0.00 | 0.00 | 27 | 1003.4 |
| 20260506224515 | 27 | 113 | 24.1 | 33.8 | 0.00 | 0.00 | 0.00 | 27 | 1003.4 |
| 20260506223115 | 26 | 111 | 25.7 | 40.2 | 0.00 | 0.00 | 0.00 | 28 | 1003.2 |
| 20260506221513 | 27 | 108 | 22.5 | 30.6 | 0.00 | 0.00 | 0.00 | 27 | 1003.4 |
| 20260506220010 | 26 | 93 | 14.5 | 27.4 | 0.00 | 0.00 | 0.00 | 28 | 1003.6 |
| 20260506214507 | 26 | 109 | 24.1 | 40.2 | 0.00 | 0.00 | 0.00 | 28 | 1003.7 |
| 20260506213105 | 26 | 95 | 19.3 | 30.6 | 0.00 | 0.00 | 0.00 | 30 | 1003.9 |
| 20260506211505 | 25 | 49 | 16.1 | 32.2 | 0.00 | 0.00 | 0.00 | 30 | 1004.0 |
| 20260506210003 | 26 | 99 | 22.5 | 37.0 | 0.00 | 0.00 | 0.00 | 30 | 1004.3 |
| 20260506204601 | 26 | 133 | 22.5 | 38.6 | 0.00 | 0.00 | 0.00 | 31 | 1004.5 |
| 20260506203057 | 25 | 135 | 25.7 | 40.2 | 0.00 | 0.00 | 0.00 | 31 | 1004.6 |
| 20260506201555 | 25 | 137 | 19.3 | 33.8 | 0.00 | 0.00 | 0.00 | 30 | 1004.9 |
| 20260506200052 | 25 | 136 | 17.7 | 30.6 | 0.00 | 0.00 | 0.00 | 31 | 1005.0 |
| 20260506194550 | 25 | 93 | 14.5 | 29.0 | 0.00 | 0.00 | 0.00 | 32 | 1005.1 |
| 20260506193052 | 23 | 109 | 19.3 | 27.4 | 0.00 | 0.00 | 0.00 | 35 | 1005.5 |
| 20260506191547 | 23 | 104 | 20.9 | 30.6 | 0.00 | 0.00 | 0.00 | 36 | 1005.5 |
| 20260506190043 | 23 | 66 | 19.3 | 29.0 | 0.00 | 0.00 | 0.00 | 36 | 1005.8 |
| 20260506184541 | 22 | 115 | 11.3 | 24.1 | 0.00 | 0.00 | 0.00 | 38 | 1006.3 |
| 20260506183038 | 22 | 104 | 16.1 | 22.5 | 0.00 | 0.00 | 0.00 | 39 | 1006.5 |
| 20260506181543 | 22 | 74 | 12.9 | 24.1 | 0.00 | 0.00 | 0.00 | 40 | 1006.6 |
| 20260506180033 | 21 | 103 | 8.0 | 22.5 | 0.00 | 0.00 | 0.00 | 41 | 1006.8 |
| 20260506174534 | 21 | 118 | 12.9 | 27.4 | 0.00 | 0.00 | 0.00 | 43 | 1007.0 |
| 20260506173048 | 21 | 90 | 19.3 | 29.0 | 0.00 | 0.00 | 0.00 | 44 | 1007.0 |
| 20260506171538 | 21 | 79 | 25.7 | 33.8 | 0.00 | 0.00 | 0.00 | 44 | 1007.0 |
| 20260506170029 | 21 | 83 | 25.7 | 35.4 | 0.00 | 0.00 | 0.00 | 43 | 1006.9 |
| 20260506164522 | 23 | 20 | 6.4 | 19.3 | 0.00 | 0.00 | 0.00 | 27 | 1006.6 |
| 20260506163028 | 23 | 347 | 16.1 | 22.5 | 0.00 | 0.00 | 0.00 | 27 | 1006.7 |
| 20260506161522 | 23 | 34 | 9.7 | 27.4 | 0.00 | 0.00 | 0.00 | 27 | 1006.6 |
| 20260506160020 | 23 | 9 | 14.5 | 33.8 | 0.00 | 0.00 | 0.00 | 27 | 1006.5 |
| 20260506154522 | 23 | 332 | 20.9 | 32.2 | 0.00 | 0.00 | 0.00 | 26 | 1006.4 |
| 20260506153023 | 22 | 333 | 25.7 | 32.2 | 0.00 | 0.00 | 0.00 | 27 | 1006.3 |
| 20260506151517 | 22 | 327 | 20.9 | 33.8 | 0.00 | 0.00 | 0.00 | 27 | 1006.1 |
| 20260506150018 | 22 | 312 | 20.9 | 29.0 | 0.00 | 0.00 | 0.00 | 27 | 1006.0 |
| 20260506144515 | 21 | 302 | 20.9 | 27.4 | 0.00 | 0.00 | 0.00 | 28 | 1006.0 |
| 20260506143023 | 21 | 316 | 22.5 | 32.2 | 0.00 | 0.00 | 0.00 | 28 | 1005.9 |
| 20260506141514 | 21 | 284 | 25.7 | 32.2 | 0.00 | 0.00 | 0.00 | 28 | 1005.8 |
| 20260506140018 | 21 | 282 | 22.5 | 32.2 | 0.00 | 0.00 | 0.00 | 27 | 1005.6 |
| 20260506134511 | 21 | 296 | 24.1 | 37.0 | 0.00 | 0.00 | 0.00 | 27 | 1005.4 |
| 20260506133010 | 21 | 296 | 25.7 | 32.2 | 0.00 | 0.00 | 0.00 | 26 | 1005.1 |
| 20260506131509 | 21 | 273 | 25.7 | 29.0 | 0.00 | 0.00 | 0.00 | 26 | 1005.0 |
| 20260506130006 | 21 | 287 | 22.5 | 30.6 | 0.00 | 0.00 | 0.00 | 26 | 1004.7 |